Flag for China Weather past 2 weeks in Shantou, Guangdong, China

Now
86 °F

Passing clouds.


Feels Like: 95 °F
Forecast: 81 / 89 °F
Wind: 6 mph from East

Location: Shantou Airport

Current Time: Aug 27, 2014 at 9:07:40 PM

Latest Report: Aug 27, 2014 at 8:00 PM


Visibility: N/A

Pressure: 29.89 "Hg

Humidity: 70%

Dew point: 75 °F

Location of ShantouLocation

Historic Weather in Shantou — Graph

°F

Shantou temperature yesterday

Maximum temperature yesterday: 95 °F (at 1:00 PM)
Minimum temperature yesterday: 79 °F (at 1:00 AM)
Average temperature yesterday: 86 °F

Past Weeks' High & Low Weather Summary

 TemperatureHumidityPressure
High99 °F (Aug 17, 3:00 PM)100% (Aug 13, 4:00 AM)29.92 "Hg (Aug 13, 4:00 AM)
Low73 °F (Aug 19, 2:00 PM)47% (Aug 17, 3:00 PM)29.56 "Hg (Aug 13, 5:00 AM)
Average84 °F82%29.79 "Hg
* Reported Aug 12 8:00 PM — Aug 27 8:00 PM, Shantou, Weather by CustomWeather, © 2014

Note: Actual official high and low records may vary slightly from our data, if they occured in-between our weather recording intervals... More about our weather records

Advertising

Shantou weather history for previous 24 hours

 ConditionsComfort  
Time TempWeatherWind HumidityBarometerVisibility
8:00 PM
Aug 27
86 °FPassing clouds.6 mph70%29.89 "HgN/A
7:00 PM88 °FPassing clouds.8 mph66%29.89 "HgN/A
6:00 PM90 °FPassing clouds.10 mph59%29.86 "HgN/A
5:00 PM91 °FPassing clouds.8 mph56%29.83 "HgN/A
4:00 PM93 °FScattered clouds.8 mph56%29.86 "HgN/A
3:00 PM93 °FScattered clouds.8 mph53%29.86 "HgN/A
2:00 PM93 °FScattered clouds.8 mph53%29.86 "HgN/A
1:00 PM93 °FPassing clouds.10 mph56%29.86 "HgN/A
12:00 PM91 °FScattered clouds.8 mph59%29.89 "HgN/A
11:00 AM90 °FScattered clouds.10 mph67%29.89 "HgN/A
10:00 AM88 °FScattered clouds.13 mph70%29.92 "HgN/A
9:00 AM86 °FPassing clouds.8 mph75%29.92 "HgN/A
8:00 AM84 °FPassing clouds.6 mph79%29.89 "HgN/A
7:00 AM81 °FClear.6 mph89%29.89 "Hg5 mi
6:00 AM81 °FClear.3 mph89%29.86 "Hg4 mi
5:00 AM81 °FPassing clouds.3 mph89%29.86 "HgN/A
4:00 AM81 °FClear.3 mph89%29.86 "Hg10 mi
3:00 AM81 °FClear.3 mph89%29.86 "Hg10 mi
2:00 AM82 °FClear.3 mph84%29.86 "Hg10 mi
1:00 AM82 °FClear.3 mph84%29.89 "Hg10 mi
12:00 AM84 °FClear.3 mph79%29.89 "Hg10 mi
11:00 PM
Aug 26
81 °FClear.1 mph94%29.89 "Hg10 mi
10:00 PM82 °FClear.No wind89%29.89 "Hg10 mi
9:00 PM86 °FClear.1 mph75%29.86 "Hg10 mi
Weather by CustomWeather, © 2014

See weather overviewHow to use our weather pages